Weather in Pushchino

Russia / Kamchatka Krai     54°10′37″N   158°00′21″E
temp.,
°C
wind,
m/s
gust,
m/s
humid.,
%
clouds,
%
prec.,
mm/h
press.,
hPa
HPBL,
m
28 february, sun
sun2800:00−14nne2497100 1.1 1011106
03:00−15ne3597100 1.0 1010173
06:00−16ne3497100 1.9 1008151
09:00−16ne2498100 0.8 1008210
12:00−14ne2491100 1.3 1005409
15:00−13ne2385100 0.3 1002451
18:00−13se2294100 0.4 100094
21:00−17s1196100 0.1 99921
1 march, mon
mon100:00−17wsw1288100 0.1 99720
03:00−16wsw337988 0.0 99523
06:00−17wsw337657 0.0 99522
09:00−17wsw227752 0.0 99622
12:00−10sw457161 0.0 996540
15:00−7wsw5106174 0.0 9961387
18:00−9sw567386 0.0 997148
21:00−12sw5675100 0.0 1000104
2 march, tue
tue200:00−13sw5677100 0.0 100292
03:00−14sw5677100 0.0 100587
06:00−15sw5677100 0.0 100885
09:00−16sw5678100 0.0 101294
12:00−11sw5106894 0.0 10151138
15:00−9w10126738 0.1 10181780
18:00−12wsw6117432 0.1 1021343
21:00−18sw447620 0.0 102626
3 march, wed
wed300:00−18sw347759 0.0 102730
03:00−17w1176100 0.0 102620
06:00−15nne2281100 0.0 102336
09:00−16ne2397100 1.2 1018183
12:00−15nne4695100 4.1 1009453
15:00−15nne4695100 5.1 999439
18:00−15ne4697100 15.9 991395
21:00−15ne3597100 10.5 980238
4 march, thu
thu400:00−15sw0197100 18.5 97542
03:00−12wsw12227458 0.9 9841004
06:00−15w10207232 1.2 992838
09:00−17w1220756 0.3 9971144
12:00−14w1725719 0.4 10022021
15:00−13wsw1725706 0.2 10051962
18:00−11sw10197426 0.4 10051531
21:00−9sw9198691 0.8 10031328